Regional Weather Roundup
Issued by NWS Wakefield, VA

Home | Current Version | Previous Version | Graphics & Text | Print | Product List | Glossary On
Versions: 1 2 3 4 5 6 7 8 9 10 11 12 13 14 15 16 17 18 19 20 21 22 23 24 25 26
000
ASUS41 KAKQ 270015
RWRAKQ

REGIONAL WEATHER ROUNDUP
NATIONAL WEATHER SERVICE WAKEFIELD VA
800 PM EDT FRI AUG 26 2016

Note: "fair" indicates few or no clouds below 12,000 feet with no
significant weather and/or obstructions to visibility. * = Denotes
station may not report precipitation (e.g., rain,snow,etc.),
thunder or fog.

VAZ042-051-052>054-056-270100-
NORTHERN VIRGINIA

CITY           SKY/WX    TMP DP  RH WIND       PRES   REMARKS
WASH NATIONAL  PTCLDY    90  69  50 NW8       30.03R
DULLES         PTCLDY    88  68  51 NE3       30.05R
FORT BELVOIR   CLEAR     81  75  80 SE2       30.03R
QUANTICO       CLEAR     85  78  80 NW3       30.04R HX  96
FREDERICKSBRG*   N/A     86  77  75 CALM      30.03R HX  97
STAFFORD*      PTCLDY    81  76  84 CALM      30.08R
WARRENTON      PTCLDY    83  72  69 CALM      30.05R
CULPEPER*      PTCLDY    82  77  85 CALM      30.06R
MANASSAS*      CLEAR     84  77  79 CALM      30.04R
LEESBURG*      CLEAR     88  73  62 CALM      30.06R HX  96
WINCHESTER     CLEAR     84  68  58 CALM      30.08R
FRONT ROYAL*   MOCLDY    82  75  78 CALM      30.07R
LURAY*         FAIR      82  73  74 CALM      30.08R
$$

VAZ048-049-060>072-079>083-270100-
CENTRAL AND SOUTH CENTRAL VIRGINIA

CITY           SKY/WX    TMP DP  RH WIND       PRES   REMARKS
RICHMOND       PTCLDY    88  73  61 E3        30.03R HX  95
CHESTERFIELD*  FAIR      90  64  43 CALM      30.05R
PETERSBURG*    CLEAR     84  76  79 CALM      30.04S
HANOVER        CLEAR     81  77  88 CALM      30.05R
TAPPAHANNOCK*  CLEAR     82  78  87 CALM      30.04R
QUINTON*       FAIR      86  77  74 CALM      30.02S HX  98
CHARLOTTSVILLE CLOUDY    82  73  74 W5        30.07R
GORDONSVILLE*  FAIR      82  75  78 CALM      30.05R
ORANGE*        LGT RAIN  81  79  94 CALM      30.09R
LOUISA*        CLEAR     82  81  94 CALM      30.05R HX  95
BUMPASS*       FAIR      81  78  91 CALM      30.05R
FARMVILLE*     CLEAR     84  75  74 CALM      30.04S
CREWE*         FAIR      82  76  81 CALM      30.05R
FORT PICKETT*  NOT AVBL
CHASE CITY*    FAIR      84  71  65 CALM      30.06R
CLARKSVILLE*   FAIR      86  73  66 CALM      30.04R
SOUTH HILL*    CLEAR     81  76  85 CALM      30.10S
LAWRENCEVILLE* FAIR      83  76  79 CALM      30.04S
EMPORIA*       CLEAR     81  75  83 CALM      30.05R
$$

VAZ088>098-270100-
SOUTHEAST VIRGINIA

CITY           SKY/WX    TMP DP  RH WIND       PRES   REMARKS
NORFOLK        CLEAR     84  72  67 NE3       30.02S
VIRGINIA BEACH PTCLDY    89  75  63 CALM      30.02R HX  99
NORFOLK NAVAL  PTCLDY    85  72  65 CALM      30.04S
WEST POINT*    CLEAR     85  74  69 CALM      30.04R
SALUDA*        FAIR      84  75  76 CALM      30.03R
NEWPORT NEWS   CLEAR     84  72  67 E3        30.03R
LANGLEY AFB    CLEAR     85  74  68 E3        30.02S
FORT EUSTIS    CLEAR     87  76  71 CALM      30.01R HX  98
WILLIAMSBURG*  CLEAR     84  77  79 CALM      30.04R
HR EXEC AP*    FAIR      79  72  78 CALM      30.05R
FRANKLIN*      CLEAR     85  76  75 CALM      30.03S
US460-WAKEFLD  CLEAR     83  76  79 CALM      30.03R
$$

VAZ020-022-025-037-045-270100-
WEST CENTRAL AND SOUTHWEST VIRGINIA

CITY           SKY/WX    TMP DP  RH WIND       PRES   REMARKS
STAUNTON*      CLOUDY    82  73  73 S3        30.12R
WAYNESBORO*    FAIR      80  70  71 N3        30.14R
HOT SPRINGS VA PTCLDY    76  65  69 CALM      30.27S
LYNCHBURG      CLEAR     80  72  76 CALM      30.10R
DANVILLE       CLEAR     82  75  79 CALM      30.06R
SOUTH BOSTON*  FAIR      86  74  68 CALM      30.05R
MARTINSVILLE   CLEAR     77  74  90 CALM      30.11R
ROANOKE        PTCLDY    87  70  56 S5        30.12R
BLACKSBURG     CLEAR     78  71  77 CALM      30.20R
DUBLIN*        CLEAR     83  73  70 CALM      30.19R
MARION*        CLEAR     80  70  71 CALM      30.22R
HILLSVILLE*    CLEAR     81  67  63 CALM      30.20R
RICHLANDS*     FAIR      81  68  65 CALM      30.21R
WISE*          CLEAR     79  59  50 N5        30.22S
ABINGDON*      CLEAR     84  67  57 NE3       30.16S
$$

MDZ021>025-VAZ099-100-270100-
SOUTHERN MARYLAND AND THE DELMARVA PENINSULA

CITY           SKY/WX    TMP DP  RH WIND       PRES   REMARKS
PATUXENT RIVER PTCLDY    81  74  79 CALM      30.02S
BAY BRIDGE APT CLEAR     86  72  62 CALM      30.02S
LEONARDTOWN    CLEAR     81  73  78 CALM      30.05R
DOVER          CLEAR     84  74  71 NW5       30.01R
GEORGETOWN     CLEAR     86  72  62 NW3       30.03R
EASTON         CLEAR     84  79  84 CALM      30.07R HX  96
CAMBRIDGE      CLEAR     81  73  78 CALM      30.02S
SALISBURY      CLEAR     84  72  67 CALM      30.02S
OCEAN CITY     CLEAR     80  73  79 CALM      30.03R
WALLOPS ISLAND CLEAR     87  70  56 CALM      30.03R
ACCOMACK*      CLEAR     81  74  79 CALM      30.03R
$$

NCZ012>017-030>032-270100-
NORTH CENTRAL AND EASTERN NORTH CAROLINA

CITY           SKY/WX    TMP DP  RH WIND       PRES   REMARKS
ROANOKE RAPIDS FAIR      82  77  83 CALM      30.03S
RALEIGH        PTCLDY    89  73  59 S3        30.04R HX  97
ELIZABETH CITY CLEAR     84  75  74 SE5       30.03S
AHOSKIE*       CLEAR     83  76  81 CALM      30.03S
EDENTON*       CLEAR     87  74  65 S7        30.04R
CURRITUCK*       N/A     84  76  76 CALM      30.04S
KILL DEVIL HLS CLEAR     82  76  82 S3        30.03S
MANTEO         CLEAR     82  74  76 SW10      30.05R
CAPE HATTERAS  CLEAR     82  70  66 S7        30.05S
TARBORO*       FAIR      83  79  87 CALM      30.04R
GOLDSBORO      CLEAR     87  76  68 SE3       30.02R HX  97
WASHINGTON     CLEAR     83  75  77 SE5       30.03S
GREENVILLE     CLEAR     86  75  70 S3        30.05S HX  95
NEW BERN       CLEAR     82  74  76 S5        30.06R
WILMINGTON     CLEAR     81  71  71 SE6       30.05S
$$

VAZ048-270100-
ELSEWHERE

CITY           SKY/WX    TMP DP  RH WIND       PRES   REMARKS
HARRISBURG PA  PTCLDY    82  73  74 CALM      30.04R
BALTIMORE      PTCLDY    88  68  51 CALM      30.03R
ANNAPOLIS      CLEAR     86  74  67 CALM      30.02S
ANDREWS AFB    CLEAR     83  69  62 E1        30.03R
PHILADELPHIA   PTCLDY    89  64  43 NW9       30.02R
HENDERSON NC   CLEAR     82  75  79 CALM      30.05R
GREENSBORO     PTCLDY    87  70  56 N5        30.07R
ROCKY MOUNT    CLEAR     84  76  76 CALM      30.03R
$$

VAZ100-270100-
MARINE

STATION/POSITION TIME  TEMP    WIND        PRES    WAVE   SWELL
                       AIR SEA DIR/SP/G            HT/PER HT/PER
                 (UTC) (F)     (DEG/KT/KT) (MB)    (FT/S) (FT/S)
BRANDYWINE LGT   2300   85     330/  7/  8   N/A
CAPE MAY NJ      2300   85 76  310/  4/  7 1015.9R
LEWES DE         2300   82 76   10/  4/  5 1016.4R
OCEAN-CITY-INLET 2300   85 72   90/  2/  3 1016.9S
WACHAPREAGUE VA  2300   87 87  210/  6/  7 1016.7S
THOMAS POINT MD  0000   86 84   90/  1/  2 1018.2R
GOOSES REEF MD   2300   89 85   90/  2/  2 1017.2R   0
COVE POINT MD    2300   87      40/  4/  5 1017.2S
SOLOMONS ISLAND  2300   89 84   50/  4/  4   N/A
PINEY POINT MD   2300           20/  3/  4   N/A
POTOMAC MD       2300   88 85   90/  2/  2 1015.5F   0
CAMBRIDGE MD     2300   89 83  330/  2/  2 1015.9S
LEWISETTA VA     2300   90 83  350/  2/  2 1016.2F
RAPPAHANNOCK LGT 2300          190/  3/  3 1017.4S
STINGRAY PT      2300   87 85  110/  6/  8 1017.2S   0
YORK RVR RNG VA  2300   85     160/  7/  8 1016.3F
YORKTOWN VA      2300   89 82  140/  3/  5 1016.3S
JAMESTOWN VA     2300   91 87  130/  6/ 10   N/A     0
DOMINION TERM VA 2300   89      60/  1/  5 1016.9S
KIPTOPEKE VA     2300      81  190/  4/  5   N/A
CHES BAY BRIDGE  2300   84 79   80/  6/  6 1016.6F
CAPE HENRY VA    2300   83     140/  6/  7   N/A
WILLOUBY STN VA  2300   85      30/  2/  3   N/A
CAPE HENRY BUOY  2312      79                N/A     2/ 8
1ST LANDING BUOY 2300   83 81  140/  6/  6 1016.2F   1/ 4
CAPE CHARLES BUO 2326      79                N/A     2/ 9
OFFSHORE WE BUOY 2321      80                N/A     2/ 8
64NM E OF VA BCH 2350   81 81  210/ 10/ 10 1017.0R   2/ 8   2/ 8
DUCK PIER NC     2300   82 78  150/  7/  8 1016.4F
44100 DUCK FRF   2305      80                N/A     2/ 8
44056 DUCK FRF   2311      80                N/A     2/ 8
OREGON INLET NC  2300   82 83  170/  7/  9 1017.2F
HATTERAS NC      2300   83 82  160/  4/  4 1017.5F
DIAMOND SHLS NC  2350   82 86  140/  4/  6 1017.9S   2/ 8   2/ 8
CAPE LOOKOUT NC  0000   82     140/  7/  9 1017.7R
$$




USA.gov is the U.S. government's official web portal to all federal, state and local government web resources and services.